{"data":{"norad_id":68290,"epoch":"2026-05-25T04:00:03.998880Z","epoch_age_seconds":74743,"freshness":"FRESH","line1":"1 68290U 26055AE  26145.16671295 -.00016760  00000+0 -47054-3 0  9992","line2":"2 68290  53.1597 323.0907 0000816  81.0574 266.0920 15.35405842  5851","mean_motion":15.35405842,"eccentricity":8.16e-5,"inclination_deg":53.1597,"raan_deg":323.0907,"arg_perigee_deg":81.0574,"mean_anomaly_deg":266.092,"bstar":-0.00047054,"rev_number":585,"period_min":93.786278559698,"perigee_km":459.15732923747,"apogee_km":460.2732667325,"semimajor_km":6837.852297985,"source":"CELESTRAK","updated_at":"2026-05-25T13:38:21.914955Z"}}